Location: Star Dogged Moon Observatory
(29.7756°N, 82.0783°W)
Time: 22:14:09
(UTC-04:00)

Amateur Radio Satellites - All Passes

Search period start: 27 August 2015 21:44
Search period end: 28 August 2015 21:44
Location: Star Dogged Moon Observatory, 29.7756°N, 82.0783°W

Satellite Date Start Highest point End Downlink Frequencies (MHz)
Time Altitude Azimuth
DELFI C3 27 Aug 21:49:21 21:52:09 19° 73° (ENE) 21:55:05 145.870
PRISM 27 Aug 21:50:07 21:52:11 13° 289° (WNW) 21:54:02 437.425
UWE-3 27 Aug 21:50:12 21:54:02 29° 73° (ENE) 21:58:02 435.000/436.395/437.385
ZACube-1 27 Aug 21:54:23 21:57:53 24° 72° (ENE) 22:01:33 437.345
FUNcube-1 27 Aug 22:01:43 22:05:27 28° 73° (ENE) 22:09:21 145.935
COMPASS 1 27 Aug 22:11:24 22:15:23 40° 262° (W) 22:19:21 437.405
AAUSAT CUBESAT 2 27 Aug 22:26:04 22:29:50 31° 263° (W) 22:33:34 437.432
CUTE 1.7 + AOD 2 27 Aug 22:36:19 22:38:19 13° 268° (W) 22:40:04 437.475
Cosmos 2491 27 Aug 22:38:00 22:46:13 45° 270° (W) 22:54:19 435.465 / 435.565
YUBILEINY 27 Aug 22:38:34 22:47:20 81° 277° (W) 22:56:11 435.215
DX 1 27 Aug 22:42:50 22:45:39 18° 71° (ENE) 22:48:37 434.975-435.025
AISAT 27 Aug 22:47:16 22:48:49 12° 69° (ENE) 22:50:39 437.250
CINEMA 3 27 Aug 22:49:07 22:52:16 18° 268° (W) 22:55:19 145.822/145.860
SRMSAT 27 Aug 22:49:23 22:52:44 15° 197° (SSW) 22:55:59 437.500
UNISAT 6 27 Aug 22:53:33 22:55:35 13° 91° (E) 22:57:50 437.425
Oscar 11 27 Aug 22:57:23 23:01:21 33° 263° (W) 23:05:16 145.826/435.025
50 SAT 27 Aug 23:01:06 23:03:52 19° 73° (ENE) 23:06:46 437.505
UKube-1 27 Aug 23:02:02 23:05:37 27° 73° (ENE) 23:09:17 .
CUBEBUG 2 27 Aug 23:10:04 23:13:43 23° 266° (W) 23:17:21 437.445
VELOX 1 27 Aug 23:14:46 23:18:19 25° 72° (ENE) 23:21:58 145.980
HUMSAT D 27 Aug 23:17:15 23:21:32 88° 81° (E) 23:25:53 437.325/437.525
TIGRISAT 27 Aug 23:22:29 23:26:25 29° 96° (E) 23:30:20 435.000
DELFI C3 27 Aug 23:23:46 23:27:04 23° 264° (W) 23:30:18 145.870
UWE-3 27 Aug 23:27:16 23:30:35 19° 267° (W) 23:33:48 435.000/436.395/437.385
ZACube-1 27 Aug 23:30:32 23:34:08 23° 265° (W) 23:37:43 437.345
Cosmos 2504 27 Aug 23:30:50 23:36:45 25° 85° (E) 23:43:17 435.465 / 435.565
ANTELSAT 27 Aug 23:37:13 23:41:37 46° 99° (E) 23:45:55 437.575/2403.000
FUNcube-1 27 Aug 23:38:28 23:41:47 20° 266° (W) 23:44:59 145.935
QB50P2 27 Aug 23:40:26 23:42:56 16° 93° (E) 23:45:37 145.880/145.840
NANOSAT C BR1 27 Aug 23:45:00 23:47:42 17° 94° (E) 23:50:34 145.865
ESTCUBE 1 27 Aug 23:50:22 23:54:42 50° 75° (ENE) 23:59:03 437.505/2401.250
QB50P1 27 Aug 23:56:03 23:59:30 24° 96° (E) 00:03:00 145.935-145.965
BUGSAT 1 27 Aug 23:57:53 23:59:56 14° 93° (E) 00:02:14 437.445
AUBIESAT-1 28 Aug 00:07:07 00:11:04 84° 105° (ESE) 00:14:41 437.475
M-CUBED/EXP-1 PRIME 28 Aug 00:07:52 00:11:52 76° 289° (WNW) 00:15:32 437.505
DX 1 28 Aug 00:17:56 00:21:42 28° 263° (W) 00:25:26 434.975-435.025
AISAT 28 Aug 00:20:51 00:25:02 44° 261° (W) 00:29:15 437.250
UNISAT 6 28 Aug 00:28:17 00:32:37 40° 285° (WNW) 00:36:47 437.425
50 SAT 28 Aug 00:35:08 00:38:16 22° 264° (W) 00:41:19 437.505
CUBEBUG 1 28 Aug 00:35:44 00:39:56 54° 260° (W) 00:44:10 437.445
TISAT 1 28 Aug 00:36:49 00:39:47 20° 72° (ENE) 00:42:55 437.305
UKube-1 28 Aug 00:38:41 00:41:45 18° 265° (W) 00:44:40 .
YUBILEINY 28 Aug 00:42:50 00:45:47 11° 296° (WNW) 00:47:51 435.215
SPROUT 28 Aug 00:49:07 00:53:16 54° 76° (ENE) 00:57:27 437.525
VELOX 1 28 Aug 00:51:30 00:54:50 20° 265° (W) 00:58:02 145.980
POLYITAN 1 28 Aug 00:54:29 00:58:44 57° 284° (WNW) 01:02:55 437.675
POPSAT HIP 1 28 Aug 00:58:59 01:03:11 51° 284° (WNW) 01:07:20 437.405
TIGRISAT 28 Aug 00:59:40 01:02:58 19° 289° (WNW) 01:06:04 435.000
DUCHIFAT 1 28 Aug 01:03:41 01:07:49 46° 285° (WNW) 01:11:53 145.980
QB50P2 28 Aug 01:15:04 01:18:54 31° 286° (WNW) 01:22:39 145.880/145.840
ANTELSAT 28 Aug 01:16:00 01:17:59 12° 291° (WNW) 01:19:43 437.575/2403.000
NANOSAT C BR1 28 Aug 01:19:50 01:23:34 29° 287° (WNW) 01:27:13 145.865
Cosmos 2504 28 Aug 01:20:53 01:28:29 51° 281° (W) 01:36:33 435.465 / 435.565
SWISSCUBE 28 Aug 01:21:24 01:22:48 11° 68° (ENE) 01:24:31 437.505
RS-15 28 Aug 01:27:55 01:37:11 27° 44° (NE) 01:47:08 29.354- 29.394
ESTCUBE 1 28 Aug 01:30:57 01:31:53 10° 269° (W) 01:32:28 437.505/2401.250
BUGSAT 1 28 Aug 01:31:38 01:35:31 35° 286° (WNW) 01:39:23 437.445
QB50P1 28 Aug 01:31:58 01:35:14 21° 288° (WNW) 01:38:22 145.935-145.965
Oscar 19 28 Aug 01:35:54 01:36:45 11° 90° (E) 01:38:02 437.125/150
BEESAT 3 28 Aug 01:47:04 01:50:35 29° 57° (ENE) 01:54:06 437.485
BEESAT 2 28 Aug 01:52:29 01:55:49 25° 56° (NE) 01:59:11 435.950
ITUPSAT 1 28 Aug 01:55:01 01:58:52 26° 72° (ENE) 02:02:50 437.325
PCSat 28 Aug 01:56:28 01:58:27 12° 105° (ESE) 02:00:49 145.827
DANDE 28 Aug 01:59:07 02:01:53 50° 281° (W) 02:05:17 436.750
CUSAT 1 28 Aug 02:04:19 02:06:59 23° 288° (WNW) 02:10:10 437.405
SO-50 28 Aug 02:10:05 02:14:32 46° 113° (ESE) 02:19:11 436.795
TISAT 1 28 Aug 02:12:00 02:15:25 24° 264° (W) 02:18:47 437.305
BEESAT 28 Aug 02:30:13 02:34:57 67° 76° (ENE) 02:39:42 436.000
SWISSCUBE 28 Aug 02:55:34 03:00:15 56° 260° (W) 03:04:56 437.505
STARS 28 Aug 03:11:19 03:13:26 14° 70° (ENE) 03:15:48 437.465
Oscar 19 28 Aug 03:11:26 03:16:35 64° 285° (WNW) 03:21:43 437.125/150
Gurwin Techsat 1B 28 Aug 03:16:53 03:21:47 38° 98° (E) 03:26:44 435.225
KKS-1 28 Aug 03:16:54 03:20:42 29° 73° (ENE) 03:24:36 437.445
GONETS M04 28 Aug 03:25:50 03:33:49 45° 90° (E) 03:41:58
BEESAT 3 28 Aug 03:25:51 03:28:17 15° 250° (WSW) 03:30:31 437.485
BEESAT 2 28 Aug 03:30:49 03:33:42 18° 249° (WSW) 03:36:25 435.950
ITUPSAT 1 28 Aug 03:32:47 03:36:42 24° 264° (W) 03:40:30 437.325
AIST 2 28 Aug 03:35:29 03:39:37 73° 62° (ENE) 03:43:42 435.215
PCSat 28 Aug 03:36:06 03:41:26 61° 296° (WNW) 03:46:48 145.827
RS-15 28 Aug 03:39:08 03:51:10 82° 245° (WSW) 04:03:27 29.354- 29.394
AO-7 28 Aug 03:42:48 03:44:01 11° 90° (E) 03:46:11 29.400- 29.500
SO-50 28 Aug 03:52:12 03:55:22 17° 309° (NW) 03:58:25 436.795
ITAMSAT 1 28 Aug 04:00:24 04:05:37 89° 122° (ESE) 04:10:48 435.822/435.867
JAS-2 28 Aug 04:06:02 04:12:49 53° 98° (E) 04:18:48 435.910
VERMONT LUNAR 28 Aug 04:24:57 04:27:21 22° 143° (SE) 04:29:48 437.305
HORYU 2 28 Aug 04:25:49 04:28:21 15° 93° (E) 04:31:04 437.375
MOZHAYETS 4 28 Aug 04:34:00 04:37:51 27° 73° (ENE) 04:41:47
STARS 28 Aug 04:45:28 04:49:35 39° 261° (W) 04:53:42 437.465
KKS-1 28 Aug 04:54:17 04:57:23 18° 266° (W) 05:00:19 437.445
Gurwin Techsat 1B 28 Aug 04:57:40 05:01:32 20° 290° (WNW) 05:05:12 435.225
Cosmos 2499 28 Aug 05:20:23 05:28:23 65° 93° (E) 05:37:00 435.465 / 435.565
GONETS M04 28 Aug 05:23:19 05:30:51 31° 286° (WNW) 05:38:10
AO-7 28 Aug 05:29:44 05:38:03 82° 105° (ESE) 05:46:21 29.400- 29.500
JAS-2 28 Aug 05:52:14 05:57:20 21° 295° (WNW) 06:01:47 435.910
O/OREOS (USA 219) 28 Aug 05:55:40 05:58:38 17° 62° (ENE) 06:01:45 437.305
RS-15 28 Aug 05:56:06 06:02:35 15° 257° (WSW) 06:07:49 29.354- 29.394
VERMONT LUNAR 28 Aug 06:00:57 06:03:44 35° 336° (NNW) 06:06:31 437.305
HORYU 2 28 Aug 06:01:03 06:05:06 34° 287° (WNW) 06:09:04 437.375
MOZHAYETS 4 28 Aug 06:11:31 06:15:04 21° 266° (W) 06:18:28
CUBESAT XI-V 28 Aug 06:15:47 06:19:38 28° 73° (ENE) 06:23:33 437.345
Cubesat XI-IV 28 Aug 06:47:03 06:50:44 20° 94° (E) 06:54:38 437.490
PHONESAT 2.4 28 Aug 06:59:09 07:02:23 42° 145° (SE) 07:05:38 2401.200-2431.200
PRISM 28 Aug 06:59:35 07:01:00 12° 70° (ENE) 07:02:41 437.425
Cosmos 2499 28 Aug 07:16:16 07:22:22 21° 291° (WNW) 07:28:17 435.465 / 435.565
AO-7 28 Aug 07:24:49 07:30:05 18° 300° (WNW) 07:34:52 29.400- 29.500
CUTE-I 28 Aug 07:32:07 07:37:22 60° 101° (E) 07:42:38 437.470
O/OREOS (USA 219) 28 Aug 07:34:02 07:38:11 33° 256° (WSW) 07:42:15 437.305
STRAND 1 28 Aug 07:36:56 07:41:56 58° 75° (ENE) 07:46:57 437.568
VERMONT LUNAR 28 Aug 07:39:24 07:40:45 12° 351° (N) 07:42:04 437.305
CUBESAT XI-V 28 Aug 07:53:35 07:57:04 20° 266° (W) 08:00:24 437.345
BRITE-PL 28 Aug 08:08:21 08:12:44 24° 95° (E) 08:17:21 437.365/2234.400
AIST 1 28 Aug 08:25:19 08:27:47 16° 90° (E) 08:30:25
Cubesat XI-IV 28 Aug 08:26:04 08:30:58 38° 287° (WNW) 08:35:49 437.490
PRISM 28 Aug 08:32:17 08:36:08 38° 261° (W) 08:39:59 437.425
PHONESAT 2.4 28 Aug 08:37:19 08:40:21 29° 339° (NNW) 08:43:21 2401.200-2431.200
CUTE 1.7 + AOD 2 28 Aug 08:52:30 08:52:49 10° 91° (E) 08:53:28 437.475
YUBILEINY 28 Aug 08:56:49 09:04:49 39° 76° (ENE) 09:12:54 435.215
GOMX 1 28 Aug 08:58:15 09:03:27 45° 98° (E) 09:08:43 467.674
CANX-2 28 Aug 09:03:36 09:06:22 17° 94° (E) 09:09:16 2200.000
CINEMA 3 28 Aug 09:13:20 09:15:43 14° 91° (E) 09:18:22 145.822/145.860
CUTE-I 28 Aug 09:14:28 09:17:01 13° 292° (WNW) 09:19:15 437.470
HO-68 28 Aug 09:15:37 09:21:57 34° 97° (E) 09:28:23 435.675
VERMONT LUNAR 28 Aug 09:16:46 09:18:02 12° 8° (N) 09:19:20 437.305
STRAND 1 28 Aug 09:19:46 09:21:34 11° 269° (W) 09:22:58 437.568
ISS 28 Aug 09:24:55 09:27:11 18° 128° (SE) 09:29:31 145.825
SEEDS 28 Aug 09:31:58 09:35:31 27° 96° (E) 09:39:06 437.485
DOVE 4 28 Aug 09:32:15 09:37:31 61° 100° (E) 09:42:43 437.250
Cosmos 2491 28 Aug 09:34:58 09:42:57 44° 90° (E) 09:51:04 435.465 / 435.565
BRITE-PL 28 Aug 09:46:14 09:51:13 35° 286° (WNW) 09:56:17 437.365/2234.400
COMPASS 1 28 Aug 10:00:30 10:04:31 48° 99° (E) 10:08:31 437.405
AIST 1 28 Aug 10:01:33 10:05:14 27° 281° (WNW) 10:08:50
AAUSAT CUBESAT 2 28 Aug 10:14:21 10:18:26 61° 100° (E) 10:22:30 437.432
TIGRISAT 28 Aug 10:16:42 10:18:54 14° 70° (ENE) 10:21:23 435.000
PHONESAT 2.4 28 Aug 10:17:04 10:18:56 14° 356° (N) 10:20:47 2401.200-2431.200
CUTE 1.7 + AOD 2 28 Aug 10:24:59 10:29:00 44° 285° (WNW) 10:32:59 437.475
ANTELSAT 28 Aug 10:30:43 10:34:08 21° 72° (ENE) 10:37:43 437.575/2403.000
GOMX 1 28 Aug 10:37:27 10:41:14 19° 290° (WNW) 10:44:50 467.674
CANX-2 28 Aug 10:38:44 10:42:18 26° 287° (WNW) 10:45:47 2200.000
AUBIESAT-1 28 Aug 10:47:35 10:51:59 43° 70° (ENE) 10:56:29 437.475
CINEMA 3 28 Aug 10:48:23 10:53:12 47° 285° (WNW) 10:57:51 145.822/145.860
M-CUBED/EXP-1 PRIME 28 Aug 10:48:36 10:53:12 53° 71° (ENE) 10:57:53 437.505
Oscar 11 28 Aug 10:50:13 10:54:31 69° 101° (E) 10:58:46 145.826/435.025
SO-50 28 Aug 10:50:33 10:51:05 10° 46° (NE) 10:51:56 436.795
VERMONT LUNAR 28 Aug 10:52:18 10:55:04 33° 24° (NNE) 10:57:51 437.305
YUBILEINY 28 Aug 10:53:41 11:01:35 37° 271° (W) 11:09:13 435.215
ISS 28 Aug 11:00:41 11:03:27 25° 320° (NW) 11:06:13 145.825
CUSAT 1 28 Aug 11:02:39 11:07:22 18° 70° (ENE) 11:12:46 437.405
HO-68 28 Aug 11:03:10 11:09:39 36° 291° (WNW) 11:16:00 435.675
DANDE 28 Aug 11:03:15 11:04:26 11° 67° (ENE) 11:06:28 436.750
CUBEBUG 2 28 Aug 11:06:13 11:10:54 68° 283° (WNW) 11:15:26 437.445
DELFI C3 28 Aug 11:07:40 11:11:39 71° 100° (E) 11:15:36 145.870
HUMSAT D 28 Aug 11:08:03 11:11:20 22° 95° (E) 11:14:39 437.325/437.525
SEEDS 28 Aug 11:08:20 11:11:07 17° 288° (WNW) 11:13:45 437.485
DOVE 4 28 Aug 11:12:11 11:14:47 13° 291° (WNW) 11:17:03 437.250
Cosmos 2504 28 Aug 11:14:56 11:22:38 39° 76° (ENE) 11:30:01 435.465 / 435.565
UNISAT 6 28 Aug 11:20:21 11:24:57 83° 77° (ENE) 11:29:40 437.425
UWE-3 28 Aug 11:21:55 11:26:26 57° 284° (WNW) 11:30:49 435.000/436.395/437.385
ZACube-1 28 Aug 11:24:15 11:28:45 74° 283° (WNW) 11:33:07 437.345
FUNcube-1 28 Aug 11:31:36 11:36:03 61° 283° (WNW) 11:40:22 145.935
Cosmos 2491 28 Aug 11:32:21 11:39:59 32° 285° (WNW) 11:47:23 435.465 / 435.565
POLYITAN 1 28 Aug 11:41:15 11:45:18 46° 75° (ENE) 11:49:25 437.675
POPSAT HIP 1 28 Aug 11:45:29 11:49:33 51° 76° (ENE) 11:53:42 437.405
DUCHIFAT 1 28 Aug 11:49:37 11:53:43 55° 76° (ENE) 11:57:52 145.980
ESTCUBE 1 28 Aug 11:50:06 11:52:57 17° 94° (E) 11:55:59 437.505/2401.250
TIGRISAT 28 Aug 11:50:53 11:55:17 44° 261° (W) 11:59:45 435.000
PHONESAT 2.4 28 Aug 11:55:18 11:57:40 17° 13° (NNE) 12:00:03 2401.200-2431.200
QB50P2 28 Aug 12:01:12 12:05:26 87° 78° (ENE) 12:09:43 145.880/145.840
NANOSAT C BR1 28 Aug 12:05:30 12:09:43 87° 258° (WSW) 12:13:58 145.865
ANTELSAT 28 Aug 12:06:45 12:10:44 28° 264° (W) 12:14:44 437.575/2403.000
DX 1 28 Aug 12:11:25 12:15:48 77° 101° (E) 12:20:11 434.975-435.025
50 SAT 28 Aug 12:15:10 12:19:00 63° 100° (E) 12:22:48 437.505
BUGSAT 1 28 Aug 12:15:13 12:19:12 69° 77° (ENE) 12:23:16 437.445
AISAT 28 Aug 12:17:07 12:21:31 54° 100° (E) 12:25:55 437.250
QB50P1 28 Aug 12:17:30 12:21:39 59° 259° (W) 12:25:51 145.935-145.965
AUBIESAT-1 28 Aug 12:23:58 12:26:50 15° 263° (W) 12:29:31 437.475
M-CUBED/EXP-1 PRIME 28 Aug 12:26:04 12:28:15 13° 265° (W) 12:30:09 437.505
SO-50 28 Aug 12:27:26 12:32:21 83° 246° (WSW) 12:37:06 436.795
VERMONT LUNAR 28 Aug 12:28:55 12:31:29 25° 216° (SW) 12:34:00 437.305
CUBEBUG 1 28 Aug 12:30:24 12:34:35 43° 99° (E) 12:38:48 437.445
PCSat 28 Aug 12:30:25 12:35:06 30° 58° (ENE) 12:39:52 145.827
UKube-1 28 Aug 12:30:30 12:34:49 69° 284° (WNW) 12:39:07 .
DANDE 28 Aug 12:40:57 12:48:32 72° 81° (E) 12:57:05 436.750
CUSAT 1 28 Aug 12:42:45 12:50:35 81° 264° (W) 12:58:50 437.405
SPROUT 28 Aug 12:42:58 12:45:29 16° 93° (E) 12:48:12 437.525
HUMSAT D 28 Aug 12:43:42 12:46:57 21° 288° (WNW) 12:50:04 437.325/437.525
VELOX 1 28 Aug 12:46:30 12:50:58 67° 283° (WNW) 12:55:23 145.980
Cosmos 2504 28 Aug 13:07:14 13:14:43 35° 272° (W) 13:21:36 435.465 / 435.565
ESTCUBE 1 28 Aug 13:25:54 13:29:54 31° 286° (WNW) 13:33:49 437.505/2401.250
PHONESAT 2.4 28 Aug 13:32:36 13:35:59 62° 28° (NNE) 13:39:22 2401.200-2431.200
GONETS M04 28 Aug 13:45:43 13:50:03 15° 67° (ENE) 13:55:04
AISAT 28 Aug 13:56:45 13:57:40 10° 291° (WNW) 13:58:17 437.250
TISAT 1 28 Aug 14:01:18 14:05:35 84° 102° (ESE) 14:09:51 437.305
ITUPSAT 1 28 Aug 14:04:33 14:04:46 10° 91° (E) 14:05:24 437.325
CUBEBUG 1 28 Aug 14:08:35 14:10:37 13° 290° (WNW) 14:12:24 437.445
JAS-2 28 Aug 14:12:56 14:16:34 15° 63° (ENE) 14:20:46 435.910
PCSat 28 Aug 14:13:53 14:18:27 27° 252° (WSW) 14:22:52 145.827
SPROUT 28 Aug 14:17:46 14:21:39 32° 286° (WNW) 14:25:27 437.525
JUGNU 28 Aug 14:18:40 14:22:45 19° 166° (SSE) 14:26:52 437.505
Oscar 19 28 Aug 14:22:01 14:27:10 82° 258° (WSW) 14:32:22 437.125/150
DANDE 28 Aug 14:25:51 14:31:24 20° 270° (W) 14:36:49 436.750
CUSAT 1 28 Aug 14:29:12 14:32:32 12° 273° (W) 14:35:11 437.405
Gurwin Techsat 1B 28 Aug 14:32:11 14:36:52 34° 72° (ENE) 14:41:39 435.225
BEESAT 28 Aug 14:36:59 14:41:00 28° 97° (E) 14:45:05 436.000
AO-7 28 Aug 14:37:58 14:38:18 10° 56° (NE) 14:39:22 29.400- 29.500
SWISSCUBE 28 Aug 15:01:47 15:06:30 61° 101° (E) 15:11:11 437.505
PHONESAT 2.4 28 Aug 15:11:27 15:13:39 16° 219° (SW) 15:15:47 2401.200-2431.200
ITAMSAT 1 28 Aug 15:12:17 15:17:27 74° 76° (ENE) 15:22:38 435.822/435.867
Cosmos 2499 28 Aug 15:21:54 15:26:30 16° 67° (ENE) 15:31:32 435.465 / 435.565
SRMSAT 28 Aug 15:22:08 15:25:02 14° 163° (SSE) 15:28:04 437.500
BEESAT 3 28 Aug 15:33:58 15:37:08 23° 112° (ESE) 15:40:25 437.485
ITUPSAT 1 28 Aug 15:38:24 15:43:04 57° 285° (WNW) 15:47:43 437.325
GONETS M04 28 Aug 15:39:15 15:48:05 84° 266° (W) 15:56:55
BEESAT 2 28 Aug 15:40:28 15:43:25 20° 111° (ESE) 15:46:30 435.950
RS-15 28 Aug 15:46:09 15:53:54 24° 105° (ESE) 16:02:22 29.354- 29.394
JAS-2 28 Aug 15:53:16 16:00:37 89° 78° (ENE) 16:08:32 435.910
JUGNU 28 Aug 16:06:16 16:11:17 29° 175° (S) 16:16:18 437.505
Gurwin Techsat 1B 28 Aug 16:12:47 16:16:55 22° 265° (W) 16:20:53 435.225
BEESAT 28 Aug 16:15:01 16:18:42 22° 289° (WNW) 16:22:16 436.000
AO-7 28 Aug 16:21:38 16:29:52 66° 71° (ENE) 16:38:07 29.400- 29.500
STARS 28 Aug 16:40:45 16:45:09 60° 101° (E) 16:49:32 437.465
SWISSCUBE 28 Aug 16:42:58 16:43:54 10° 292° (WNW) 16:44:29 437.505
KKS-1 28 Aug 16:49:44 16:54:09 57° 284° (WNW) 16:58:32 437.445
HORYU 2 28 Aug 16:52:32 16:57:01 81° 257° (WSW) 17:01:33 437.375
SRMSAT 28 Aug 17:08:55 17:13:42 26° 171° (S) 17:18:32 437.500
BEESAT 3 28 Aug 17:11:49 17:15:00 21° 305° (NW) 17:18:07 437.485
Cosmos 2499 28 Aug 17:12:12 17:20:52 80° 266° (W) 17:28:53 435.465 / 435.565
BEESAT 2 28 Aug 17:17:55 17:21:19 25° 304° (WNW) 17:24:42 435.950
AIST 2 28 Aug 17:27:16 17:31:27 68° 116° (ESE) 17:35:41 435.215
ISS 28 Aug 17:32:56 17:35:10 17° 37° (NE) 17:37:26 145.825
GONETS M04 28 Aug 17:41:11 17:43:58 11° 278° (W) 17:45:49
JAS-2 28 Aug 17:43:17 17:46:44 13° 274° (W) 17:49:35 435.910
RS-15 28 Aug 17:54:38 18:05:28 69° 300° (WNW) 18:16:39 29.354- 29.394
JUGNU 28 Aug 17:54:49 17:59:51 30° 185° (S) 18:04:52 437.505
Cubesat XI-IV 28 Aug 18:03:40 18:07:12 19° 69° (ENE) 18:10:56 437.490
MOZHAYETS 4 28 Aug 18:11:26 18:15:53 53° 285° (WNW) 18:20:19
AO-7 28 Aug 18:17:08 18:23:15 21° 266° (W) 18:28:54 29.400- 29.500
CUBESAT XI-V 28 Aug 18:20:35 18:21:39 11° 91° (E) 18:23:04 437.345
CUTE-I 28 Aug 18:48:00 18:53:10 54° 74° (ENE) 18:58:21 437.470
SRMSAT 28 Aug 18:57:16 19:02:26 32° 180° (S) 19:07:37 437.500
ISS 28 Aug 19:08:43 19:11:37 29° 230° (SW) 19:14:28 145.825
BRITE-PL 28 Aug 19:17:04 19:17:29 10° 68° (ENE) 19:18:13 437.365/2234.400
HO-68 28 Aug 19:41:12 19:44:03 13° 62° (ENE) 19:47:26 435.675
Cubesat XI-IV 28 Aug 19:42:00 19:47:02 41° 261° (W) 19:52:02 437.490
JUGNU 28 Aug 19:44:14 19:48:23 20° 194° (SSW) 19:52:28 437.505
STRAND 1 28 Aug 19:53:52 19:58:24 32° 97° (E) 20:02:59 437.568
CUBESAT XI-V 28 Aug 19:54:55 19:59:25 50° 284° (WNW) 20:03:54 437.345
Cosmos 2491 28 Aug 19:55:08 19:59:11 15° 67° (ENE) 20:03:59 435.465 / 435.565
O/OREOS (USA 219) 28 Aug 20:00:32 20:04:56 57° 106° (ESE) 20:09:25 437.305
GOMX 1 28 Aug 20:01:45 20:04:57 21° 71° (ENE) 20:08:26 467.674
RS-15 28 Aug 20:13:57 20:20:40 16° 326° (NW) 20:26:54 29.354- 29.394
AIST 1 28 Aug 20:14:12 20:18:12 36° 80° (E) 20:22:15
PRISM 28 Aug 20:20:06 20:23:59 42° 99° (E) 20:27:55 437.425
CUTE-I 28 Aug 20:30:54 20:33:37 13° 268° (W) 20:35:58 437.470
DOVE 4 28 Aug 20:32:31 20:36:14 28° 72° (ENE) 20:40:14 437.250
SRMSAT 28 Aug 20:46:23 20:51:10 25° 190° (S) 20:55:57 437.500
COMPASS 1 28 Aug 20:46:57 20:49:28 16° 72° (ENE) 20:52:08 437.405
BRITE-PL 28 Aug 20:51:33 20:55:35 47° 261° (W) 20:59:51 437.365/2234.400
AAUSAT CUBESAT 2 28 Aug 20:59:57 21:02:53 19° 72° (ENE) 21:05:56 437.432
CUTE 1.7 + AOD 2 28 Aug 21:11:18 21:15:30 57° 76° (ENE) 21:19:44 437.475
HO-68 28 Aug 21:23:51 21:31:01 89° 255° (WSW) 21:38:14 435.675
CANX-2 28 Aug 21:24:37 21:28:55 84° 258° (WSW) 21:33:14 2200.000
STRAND 1 28 Aug 21:33:31 21:37:26 22° 290° (WNW) 21:41:11 437.568
